Regional Weather Roundup
Issued by NWS

Home | Current Version | Previous Version | Text Only | Print | Product List | Glossary On
Versions: 1 2 3 4 5 6 7 8 9 10 11 12 13 14 15 16 17 18 19 20 21 22 23 24 25 26 27 28 29 30 31 32 33 34 35 36 37 38 39 40 41 42 43 44 45 46 47 48 49 50
000
ASUS43 KMPX 060101
RWRMN
WEATHER ROUNDUP FOR MINNESOTA
NATIONAL WEATHER SERVICE TWIN CITIES/CHANHASSEN MN
800 PM CDT THU MAY 05 2016


NOTE: "FAIR" INDICATES FEW OR NO CLOUDS BELOW 12,000 FEET WITH NO
SIGNIFICANT WEATHER AND/OR OBSTRUCTIONS TO VISIBILITY. N/A MEANS
CURRENT SKY AND/OR WEATHER CONDITIONS ARE NOT AVAILABLE.

MNZ060>063-068>070-060200-
   Twin Cities Metro

CITY           SKY/WX    TMP DP  RH WIND       PRES   REMARKS
TWIN CITIES    PTCLDY    77  36  22 SW5       29.88F
ST PAUL        CLEAR     71  41  33 S5        29.88F
CRYSTAL        CLEAR     76  38  25 S5        29.86F
EDEN PRAIRIE   CLEAR     74  40  29 SW8       29.87F
SOUTH ST PAUL  CLEAR     74  36  24 CALM      29.88S
LAKE ELMO      FAIR      70  43  37 S5        29.89F
$$
MNZ001>005-007-008-013>017-022>024-027-028-060200-
   Northwest Minnesota

CITY           SKY/WX    TMP DP  RH WIND       PRES   REMARKS
BEMIDJI        CLEAR     82  36  19 W6        29.76S
HALLOCK        CLEAR     86  30  13 W12       29.66S
ROSEAU         CLEAR     86  36  16 SW3       29.68S
WARROAD        CLEAR     77  50  38 CALM      29.68S
THIEF RVR FALL CLEAR     86  34  15 SW12      29.74S
CROOKSTON      CLEAR     84  32  15 W12       29.73S
FOSSTON        CLEAR     82  28  14 W9        29.76S
DETROIT LAKES  CLEAR     81  36  19 SW6       29.81S
MOORHEAD       CLEAR     86  34  15 SW9       29.77S
PARK RAPIDS    CLEAR     78  39  24 SW9       29.79S
MAHNOMEN       FAIR      84  37  18 SW13      29.77R
$$
MNZ006-009>011-018-025>026-060200-
   North Central Minnesota

CITY           SKY/WX    TMP DP  RH WIND       PRES   REMARKS
BAUDETTE       CLEAR     80  37  21 N6        29.69R
FLAG ISLAND    CLEAR     79  36  21 CALM      29.66S
INTL FALLS     PTCLDY    80  48  32 W3        29.68S
WASKISH        CLEAR     75  45  33 SW15      29.72S
BIG FORK       CLEAR     79  45  29 SW7       29.74S
LONGVILLE      CLEAR     79  41  25 SW5       29.79S
GRAND RAPIDS   CLEAR     79  43  27 SW7       29.79F
CRANE LAKE     CLOUDY    75  52  43 CALM      29.72S
ORR            CLOUDY    81  34  18 CALM      29.70S
COOK           CLOUDY    81  43  26 SW6       29.74S
WALKER         FAIR      81  40  23 SW13G20   29.77F
$$
MNZ012-019>021-037-060200-
   Northeast Minnesota

CITY           SKY/WX    TMP DP  RH WIND       PRES   REMARKS
DULUTH         PTCLDY    75  40  28 SW14      29.79F
ELY            CLOUDY    77  39  25 SW5       29.75S
HIBBING        CLEAR     78  40  25 SW6       29.76F
EVELETH        CLEAR     77  37  24 SW9       29.77F
DULUTH HARBOR  CLEAR     75  43  31 SW10      29.77F
TWO HARBORS      N/A     75  48  38 SW7       29.76S
SILVER BAY     CLEAR     70  39  32 CALM      29.76S
GRAND MARAIS     N/A     45  35  68 NE6       29.81R
G MARAIS ARPRT CLOUDY    61  36  39 S8        29.82S
$$
MNZ029>031-032-039>041-046>048-054>057-064-060200-
   West Central Minnesota

CITY           SKY/WX    TMP DP  RH WIND       PRES   REMARKS
FERGUS FALLS   CLEAR     81  41  24 SW10      29.77S
WHEATON        CLEAR     82  43  24 SW10      29.84R
MORRIS         CLEAR     81  43  26 SW12      29.84S
ALEXANDRIA     CLEAR     77  42  28 SW9       29.86S
ELBOW LAKE     FAIR      79  40  25 SW10      29.84S
WADENA         CLEAR     81  43  26 SW8       29.82R
GLENWOOD       CLEAR     75  43  31 SW8       29.87S
APPLETON       CLEAR     79  39  24 SW7       29.85S
BENSON         CLEAR     77  37  24 W8        29.86R
ORTONVILLE     CLEAR     81  39  22 SW7       29.85S
MADISON        CLEAR     77  39  25 SW6       29.87R
WILLMAR        FAIR      79  43  27 SW10      29.88S
$$
MNZ033>034-036-042>043-049>051-058-059-060200-
   Central Minnesota

CITY           SKY/WX    TMP DP  RH WIND       PRES   REMARKS
ST CLOUD       CLEAR     77  41  27 SW7       29.85F
SAUK CENTRE      N/A     76  45  33 SW8       29.85S
PAYNESVILLE    CLEAR     78  40  25 SW6       29.87S
AITKIN         CLEAR     79  34  19 SW6       29.80S
PINE RIVER     CLEAR     81  46  30 SW6       29.84S
BRAINERD       CLEAR     76  43  30 S8        29.82F
STAPLES        CLEAR     79  39  24 SW7       29.82S
LONG PRAIRIE   FAIR      77  43  29 S8        29.85S
LITTLE FALLS   CLEAR     77  41  27 S6        29.84S
LITCHFIELD     CLEAR     79  41  25 CALM      29.88S
BUFFALO        CLEAR     76  40  27 S5        29.87F
MAPLE LAKE     CLEAR     77  45  32 CALM      29.87F HAZE
HUTCHINSON     CLEAR     78  44  29 SW6       29.89S
$$
MNZ037-044-045-052-053-060200-
   East Central Minnesota

CITY           SKY/WX    TMP DP  RH WIND       PRES   REMARKS
PRINCETON      CLEAR     75  41  29 S5        29.85F
MORA           CLEAR     72  41  33 SW5       29.85F
CAMBRIDGE        N/A     77  52  41 S5        29.84F
RUSH CITY      CLEAR     73  40  30 S3        29.85F
MOOSE LAKE     CLEAR     77  43  29 SW8       29.80F
HINCKLEY       CLOUDY    70  45  40 SW7       29.83F
CLOQUET        CLEAR     75  36  23 SW6       29.80F
MCGREGOR       CLEAR     75  43  31 SW7       29.81F
$$
MNZ071>073-080-081-089-090-097-098-060200-
   Southwest Minnesota

CITY           SKY/WX    TMP DP  RH WIND       PRES   REMARKS
MONTEVIDEO     CLEAR     79  41  25 W6        29.89R
GRANITE FALLS  CLEAR     81  42  25 S12       29.89S
CANBY          CLEAR     79  44  28 SW8       29.89S
MARSHALL       CLEAR     76  46  34 SW10      29.90S
REDWOOD FALLS  CLEAR     77  41  27 SW12      29.88F
OLIVIA         CLEAR     77  43  29 SW10      29.87F
PIPESTONE      CLEAR     70  46  43 SW7       29.94S
WINDOM         CLEAR     73  39  29 CALM      29.93F
WORTHINGTON      N/A     73  43  33 SW10      29.95F
JACKSON        CLEAR     73  32  21 SW8       29.95S
TRACY          CLEAR     76  43  30 SW9       29.91F
SLAYTON        CLEAR     75  39  26 SW9       29.94F
$$
MNZ065>067-074>077-082>085-091>093-060200-
   South Central Minnesota

CITY           SKY/WX    TMP DP  RH WIND       PRES   REMARKS
MANKATO        CLEAR     73  39  29 SW8       29.91S
ST JAMES       CLEAR     68  39  34 SW6       29.92S
FAIRMONT       CLEAR     73  39  29 SW7       29.93F
GLENCOE        CLEAR     77  45  32 S5        29.87F
FARIBAULT      CLEAR     73  39  29 SW5       29.91F
OWATONNA       CLEAR     73  34  23 SW7       29.92S
WASECA         CLEAR     72  41  33 SW8       29.93S HAZE
ALBERT LEA     CLEAR     72  36  26 SW3       29.93F
$$
MNZ078>079-086>088-094>096-060200-
   Southeast Minnesota

CITY           SKY/WX    TMP DP  RH WIND       PRES   REMARKS
ROCHESTER      CLEAR     67  40  37 SW9       29.93F
RED WING       CLEAR     66  39  37 SE5       29.89S
STANTON        CLEAR     71  38  29 SW6       29.89S
DODGE CENTER   CLEAR     68  37  32 W5        29.93F
WINONA         CLEAR     70  41  35 E6        29.93R
AUSTIN         CLEAR     72  36  26 W5        29.94S
PRESTON        PTCLDY    65  36  34 SW5       29.95F
$$
ABBREVIATIONS USED IN REMARKS
   TC - TEMPERATURES IN CELSIUS
  WCI - WIND CHILL INDEX
   HX - HEAT INDEX
  VSB - VISIBILITY
$$



USA.gov is the U.S. government's official web portal to all federal, state and local government web resources and services.